Torna al catalogo

VULCAN CENTAUR R/B

AttivoGEO
NORAD 67762·ROCKET BODY·🇺🇸 United States

Lanciato Feb 12, 2026 da Cape Canaveral Space Force Station

Loading…

TLE

AggiornatoSource: Mike McCants

Epoca: Sep 15, 2026, 19:15 UTC

1 67762U 26029D   26258.80248284  .00000000  00000-0  00000-0 0    09
2 67762   0.7482 357.2179 0053137 293.5035  65.9522  0.98157634   418

Traccia VULCAN CENTAUR R/B in tempo reale con AllMySat

Download on the App Store